Weather History for Robstown, TX

Change the Weather History Date:

Thursday, February 14, 2013

  Actual Average (KCRP) Record (KCRP)
Temperature  
Mean Temperature 57 °F 60 °F  
Max Temperature 72 °F 70 °F 91 °F (2014)
Min Temperature 42 °F 50 °F 26 °F (1895)
Degree Days  
Heating Degree Days 8 6  
Month to date heating degree days 100  
Since 1 July heating degree days 727  
Cooling Degree Days 0 2  
Month to date cooling degree days 21  
Year to date cooling degree days 51  
Growing Degree Days 7 (Base 50)    
Moisture  
Dew Point 39 °F    
Average Humidity 58    
Maximum Humidity 87    
Minimum Humidity 22    
Precipitation  
Precipitation 0.00 in 0.08 in 1.98 in (1942)
Month to date precipitation 0.89  
Year to date precipitation 2.43  
Snow  
Snow 0.00 in - - ()
Month to date snowfall  
Since 1 July snowfall  
Snow Depth -    
Sea Level Pressure  
Sea Level Pressure 30.09 in    
Wind  
Wind Speed 4 mph (East)    
Max Wind Speed 14 mph    
Max Gust Speed 21 mph    
Visibility 10 miles    
Events      
T = Trace of Precipitation, MM = Missing Value Source: NWS Daily Summary

Daily Weather History Graph

Daily Weather History Graph

Search for Another Location

Airport:

Trip Planner

Search our weather history database for the weather conditions in past years. The results will help you decide how hot, cold, wet, or windy it might be!

Date:

Astronomy

Feb. 14, 2013 Rise Set
Actual Time 7:08 AM CST 6:21 PM CST
Civil Twilight 6:44 AM CST 6:45 PM CST
Nautical Twilight 6:17 AM CST 7:13 PM CST
Astronomical Twilight 5:49 AM CST 7:40 PM CST
Moon 9:40 AM CST (2/14) 10:53 PM CST (2/14)
Length of Visible Light 12h 00m
Length of Day
11h 12m
Waxing Crescent, 22% of the Moon is Illuminated
Feb 14
Waxing Crescent
Feb 17
First Quarter
Feb 25
Full
Mar 4
Last Quarter
Mar 11
New

Hourly Weather History & Observations

Time (CST) Temp. Windchill Dew Point Humidity Pressure Visibility Wind Dir Wind Speed Gust Speed Precip Events Conditions
12:15 AM 47.7 °F - 41.9 °F 80% 30.11 in 10.0 mi Calm Calm - N/A   Clear
12:35 AM 47.8 °F - 42.4 °F 82% 30.11 in 10.0 mi East 3.5 mph - N/A   Clear
12:55 AM 49.3 °F - 43.2 °F 79% 30.11 in 10.0 mi Calm Calm - N/A   Clear
1:15 AM 48.0 °F - 43.0 °F 83% 30.11 in 10.0 mi Calm Calm - N/A   Clear
1:35 AM 49.3 °F - 43.9 °F 82% 30.11 in 10.0 mi Calm Calm - N/A   Clear
1:55 AM 47.5 °F - 42.6 °F 83% 30.11 in 10.0 mi Calm Calm - N/A   Clear
2:15 AM 46.2 °F 44.1 °F 41.5 °F 84% 30.11 in 10.0 mi NNE 4.6 mph - N/A   Clear
2:35 AM 44.6 °F 41.4 °F 40.3 °F 85% 30.10 in 10.0 mi North 5.8 mph - N/A   Clear
2:55 AM 43.9 °F 42.3 °F 39.7 °F 85% 30.10 in 10.0 mi NNE 3.5 mph - N/A   Clear
3:15 AM 43.9 °F - 39.9 °F 86% 30.10 in 10.0 mi Calm Calm - N/A   Clear
3:35 AM 45.0 °F 43.5 °F 41.0 °F 86% 30.09 in 10.0 mi NE 3.5 mph - N/A   Clear
3:55 AM 45.5 °F 43.2 °F 41.0 °F 84% 30.09 in 10.0 mi NE 4.6 mph - N/A   Clear
4:15 AM 46.8 °F - 41.0 °F 80% 30.09 in 10.0 mi ENE 3.5 mph - N/A   Clear
4:35 AM 46.8 °F - 41.0 °F 80% 30.09 in 10.0 mi ENE 4.6 mph - N/A   Clear
4:55 AM 47.1 °F - 41.7 °F 81% 30.09 in 10.0 mi ENE 4.6 mph - N/A   Clear
5:15 AM 48.4 °F - 42.3 °F 79% 30.09 in 10.0 mi ENE 5.8 mph - N/A   Clear
5:35 AM 48.7 °F - 42.4 °F 79% 30.09 in 10.0 mi NE 3.5 mph - N/A   Clear
5:55 AM 45.7 °F - 40.6 °F 83% 30.10 in 10.0 mi Calm Calm - N/A   Clear
6:15 AM 45.5 °F 44.2 °F 41.0 °F 84% 30.10 in 10.0 mi ENE 3.5 mph - N/A   Clear
6:35 AM 46.8 °F - 42.1 °F 84% 30.10 in 10.0 mi ENE 5.8 mph - N/A   Clear
6:55 AM 47.3 °F - 42.8 °F 84% 30.11 in 10.0 mi ENE 5.8 mph - N/A   Clear
7:15 AM 43.5 °F - 39.6 °F 86% 30.12 in 10.0 mi Calm Calm - N/A   Clear
7:35 AM 42.4 °F - 38.7 °F 86% 30.12 in 10.0 mi Calm Calm - N/A   Clear
7:55 AM 43.9 °F - 40.1 °F 87% 30.13 in 10.0 mi Calm Calm - N/A   Clear
8:15 AM 46.4 °F - 41.7 °F 84% 30.14 in 10.0 mi Calm Calm - N/A   Clear
8:35 AM 49.3 °F - 43.5 °F 81% 30.15 in 10.0 mi Calm Calm - N/A   Clear
8:55 AM 52.7 °F - 45.3 °F 76% 30.15 in 10.0 mi Calm Calm - N/A   Clear
9:15 AM 55.2 °F - 46.4 °F 72% 30.16 in 10.0 mi Calm Calm - N/A   Clear
9:35 AM 57.2 °F - 47.1 °F 69% 30.15 in 10.0 mi Calm Calm - N/A   Clear
9:55 AM 59.9 °F - 47.5 °F 64% 30.15 in 10.0 mi Calm Calm - N/A   Clear
10:15 AM 64.0 °F - 41.9 °F 44% 30.15 in 10.0 mi ENE 6.9 mph - N/A   Clear
10:35 AM 65.7 °F - 39.6 °F 38% 30.15 in 10.0 mi East 5.8 mph - N/A   Clear
10:55 AM 65.8 °F - 38.8 °F 37% 30.15 in 10.0 mi SE 3.5 mph - N/A   Clear
11:15 AM 67.8 °F - 37.2 °F 32% 30.14 in 10.0 mi East 8.1 mph - N/A   Clear
11:35 AM 68.2 °F - 34.3 °F 29% 30.14 in 10.0 mi Calm Calm - N/A   Clear
11:55 AM 68.9 °F - 33.8 °F 27% 30.13 in 10.0 mi SE 8.1 mph - N/A   Clear
12:15 PM 68.9 °F - 32.7 °F 26% 30.13 in 10.0 mi South 4.6 mph - N/A   Clear
12:35 PM 70.2 °F - 32.0 °F 24% 30.12 in 10.0 mi ESE 6.9 mph - N/A   Clear
12:55 PM 70.5 °F - 31.5 °F 24% 30.11 in 10.0 mi Calm Calm - N/A   Clear
1:15 PM 70.9 °F - 32.0 °F 24% 30.09 in 10.0 mi ENE 3.5 mph - N/A   Clear
1:35 PM 71.2 °F - 31.8 °F 23% 30.08 in 10.0 mi SE 6.9 mph - N/A   Clear
1:55 PM 72.5 °F - 33.4 °F 24% 30.07 in 10.0 mi East 11.5 mph - N/A   Clear
2:15 PM 72.5 °F - 34.0 °F 24% 30.05 in 10.0 mi East 12.7 mph 17.3 mph N/A   Clear
2:35 PM 72.3 °F - 34.2 °F 25% 30.05 in 10.0 mi East 9.2 mph 16.1 mph N/A   Clear
2:55 PM 72.5 °F - 34.3 °F 25% 30.04 in 10.0 mi East 11.5 mph - N/A   Clear
3:15 PM 72.0 °F - 33.8 °F 25% 30.04 in 10.0 mi East 13.8 mph - N/A   Clear
3:35 PM 70.9 °F - 31.3 °F 23% 30.04 in 10.0 mi East 9.2 mph 16.1 mph N/A   Clear
3:55 PM 70.9 °F - 30.9 °F 23% 30.05 in 10.0 mi East 11.5 mph 18.4 mph N/A   Clear
4:15 PM 70.7 °F - 30.2 °F 22% 30.04 in 10.0 mi East 13.8 mph - N/A   Clear
4:35 PM 70.0 °F - 30.9 °F 24% 30.04 in 10.0 mi ESE 11.5 mph 20.7 mph N/A   Clear
4:55 PM 69.3 °F - 34.9 °F 28% 30.04 in 10.0 mi ESE 12.7 mph - N/A   Clear
5:15 PM 68.2 °F - 35.8 °F 30% 30.04 in 10.0 mi ESE 12.7 mph - N/A   Clear
5:35 PM 66.9 °F - 36.5 °F 33% 30.04 in 10.0 mi ESE 13.8 mph - N/A   Clear
5:55 PM 65.5 °F - 39.2 °F 38% 30.04 in 10.0 mi ESE 13.8 mph - N/A   Clear
6:15 PM 64.2 °F - 40.8 °F 42% 30.05 in 10.0 mi ESE 11.5 mph - N/A   Clear
6:35 PM 62.6 °F - 41.2 °F 45% 30.05 in 10.0 mi ESE 12.7 mph - N/A   Clear
6:55 PM 61.2 °F - 40.1 °F 46% 30.05 in 10.0 mi ESE 11.5 mph - N/A   Clear
7:15 PM 60.1 °F - 40.6 °F 49% 30.05 in 10.0 mi ESE 9.2 mph - N/A   Clear
7:35 PM 58.8 °F - 40.5 °F 51% 30.05 in 10.0 mi ESE 9.2 mph - N/A   Clear
7:55 PM 57.6 °F - 40.5 °F 53% 30.05 in 10.0 mi ESE 8.1 mph - N/A   Clear
8:15 PM 56.7 °F - 41.0 °F 56% 30.05 in 10.0 mi ESE 8.1 mph - N/A   Clear
8:35 PM 56.1 °F - 41.4 °F 58% 30.05 in 10.0 mi ESE 6.9 mph - N/A   Clear
8:55 PM 54.3 °F - 41.0 °F 61% 30.06 in 10.0 mi ESE 5.8 mph - N/A   Clear
9:15 PM 53.8 °F - 41.2 °F 62% 30.07 in 10.0 mi ESE 6.9 mph - N/A   Clear
9:35 PM 52.7 °F - 41.2 °F 65% 30.07 in 10.0 mi ESE 5.8 mph - N/A   Clear
9:55 PM 52.9 °F - 41.4 °F 65% 30.07 in 10.0 mi SE 5.8 mph - N/A   Clear
10:15 PM 52.7 °F - 41.7 °F 66% 30.07 in 10.0 mi SE 6.9 mph - N/A   Clear
10:35 PM 52.3 °F - 42.8 °F 70% 30.07 in 10.0 mi ESE 6.9 mph - N/A   Clear
10:55 PM 51.8 °F - 42.4 °F 70% 30.07 in 10.0 mi ESE 6.9 mph - N/A   Clear
11:15 PM 51.3 °F - 42.4 °F 72% 30.07 in 10.0 mi ESE 6.9 mph - N/A   Clear
11:35 PM 51.3 °F - 42.4 °F 72% 30.07 in 10.0 mi ESE 6.9 mph - N/A   Clear
11:55 PM 50.9 °F - 42.4 °F 73% 30.06 in 10.0 mi ESE 6.9 mph - N/A   Clear